Regional Weather Roundup
Issued by NWS Cleveland, OH

Home | Current Version | Previous Version | Graphics & Text | Print | Product List | Glossary On
Versions: 1 2 3 4 5 6 7 8 9 10 11 12 13 14 15 16 17 18 19 20 21 22 23 24 25 26 27 28 29 30 31 32 33 34 35 36 37 38 39 40 41 42 43 44 45 46 47 48 49 50
000
ASUS41 KCLE 260210
RWRCLE
OHIO REGIONAL WEATHER ROUNDUP
NATIONAL WEATHER SERVICE CLEVELAND, OH
1000 PM EDT SAT APR 25 2015

NOTE: "FAIR" INDICATES FEW OR NO CLOUDS BELOW 12,000 FEET WITH NO
SIGNIFICANT WEATHER AND/OR OBSTRUCTIONS TO VISIBILITY.

OHZ001>008-015>018-024>027-034-035-043-044-260300-
   NORTHWEST OHIO

CITY           SKY/WX    TMP DP  RH WIND       PRES   REMARKS
DEFIANCE       CLOUDY    44  30  57 NE3       29.79R
FINDLAY        CLOUDY    41  28  60 NE8       29.75R
TOLEDO EXPRESS CLOUDY    44  26  49 NE13      29.78R
TOLEDO EXEC    CLOUDY    44  29  55 NE10      29.79R
LIMA           CLOUDY    40  34  79 N5        29.75R
$$

OHZ009>014-019>023-028>033-038-089-260300-
   NORTHEAST OHIO

CITY           SKY/WX    TMP DP  RH WIND       PRES   REMARKS
CLE-HOPKINS    CLOUDY    44  21  40 NE10      29.77S
CLE-LAKEFRONT  MOCLDY    45  24  43 NE12      29.75S
CUY CO. ARPT   NOT AVBL
LORAIN-ELYRIA  CLOUDY    42  29  59 NE14      29.75F
ASHTABULA      MOCLDY    41  24  51 NE7       29.77S
AKRON-CANTON   CLOUDY    47  27  45 NE14      29.71S
WOOSTER        CLOUDY    42  24  49 N8        29.71S
MANSFIELD      CLOUDY    40  22  48 N8        29.71F
YOUNGSTOWN     CLOUDY    43  24  47 N13       29.73S
$$

OHZ042-051>053-060>062-070>072-077>081-260300-
  SOUTHWEST OHIO

CITY           SKY/WX    TMP DP  RH WIND       PRES   REMARKS
CINC-COVINGTON CLOUDY    45  44  97 NE18      29.62R
CINC-LUNKEN    CLOUDY    46  42  86 NE8       29.66R
HAMILTON       CLOUDY    46  41  82 E7        29.68R
DAYTON         CLOUDY    45  41  86 NE14      29.70R
WRIGHT-PAT AFB CLOUDY    45  41  86 NE14      29.68R
DAYTON GENERAL CLOUDY    44  40  85 NE14      29.66R
WILMINGTON     CLOUDY    43  39  86 NE13      29.64F
$$

OHZ036-037-039>041-045>050-054>059-063>069-073>076-082>088-260300-
  CENTRAL AND SOUTHEAST OHIO

CITY           SKY/WX    TMP DP  RH WIND       PRES   REMARKS
COLUMBUS       MOCLDY    43  40  89 NE12      29.69R
OSU AIRPORT    CLOUDY    43  39  86 NE10      29.70R
BOLTON FIELD   CLOUDY    44  40  88 NE12      29.69S
RICKENBACK AFB CLOUDY    43  40  89 NE8       29.69R
NEWARK         LGT RAIN  44  39  82 N5        29.69F
MARION         LGT RAIN  39  33  79 NE7       29.73R
LANCASTER      CLOUDY    44  40  85 NE10      29.69R
ZANESVILLE     CLOUDY    42  39  89 NE5       29.69F
NEW PHILLY     CLOUDY    46  39  76 CALM      29.71R
$$



USA.gov is the U.S. government's official web portal to all federal, state and local government web resources and services.